TimeEDT,TemperatureF,Dew PointF,Humidity,Sea Level PressureIn,VisibilityMPH,Wind Direction,Wind SpeedMPH,Gust SpeedMPH,PrecipitationIn,Events,Conditions,WindDirDegrees,DateUTC
12:53 AM,71.1,70.0,96,30.19,7.0,Calm,Calm,-,N/A,,Clear,0,2013-07-16 04:53:00
1:53 AM,70.0,68.0,93,30.19,8.0,Calm,Calm,-,N/A,,Clear,0,2013-07-16 05:53:00
2:53 AM,68.0,66.9,96,30.19,6.0,Calm,Calm,-,N/A,,Clear,0,2013-07-16 06:53:00
3:32 AM,66.2,66.2,100,30.20,2.5,Calm,Calm,-,N/A,,Clear,0,2013-07-16 07:32:00
3:46 AM,66.2,66.2,100,30.20,4.0,Calm,Calm,-,N/A,,Clear,0,2013-07-16 07:46:00
3:53 AM,66.9,66.0,97,30.19,6.0,Calm,Calm,-,N/A,,Clear,0,2013-07-16 07:53:00
4:53 AM,66.0,64.9,96,30.20,1.8,Calm,Calm,-,N/A,,Clear,0,2013-07-16 08:53:00
4:57 AM,66.2,64.4,94,30.21,3.0,Calm,Calm,-,N/A,,Clear,0,2013-07-16 08:57:00
5:37 AM,64.4,64.4,100,30.23,2.5,Calm,Calm,-,N/A,,Partly Cloudy,0,2013-07-16 09:37:00
5:45 AM,64.4,64.4,100,30.23,1.5,Calm,Calm,-,N/A,,Mostly Cloudy,0,2013-07-16 09:45:00
5:53 AM,64.9,64.0,97,30.22,1.2,Calm,Calm,-,N/A,,Mostly Cloudy,0,2013-07-16 09:53:00
6:02 AM,64.4,64.4,100,30.23,0.2,Calm,Calm,-,N/A,Fog,Fog,0,2013-07-16 10:02:00
6:23 AM,64.4,64.4,100,30.23,1.2,Variable,3.5,-,N/A,,Scattered Clouds,0,2013-07-16 10:23:00
6:31 AM,66.2,66.2,100,30.24,2.0,Calm,Calm,-,N/A,,Partly Cloudy,0,2013-07-16 10:31:00
6:41 AM,66.2,66.2,100,30.24,4.0,Calm,Calm,-,N/A,,Clear,0,2013-07-16 10:41:00
6:53 AM,66.9,66.0,97,30.23,5.0,Calm,Calm,-,N/A,,Clear,0,2013-07-16 10:53:00
7:53 AM,73.0,69.1,87,30.24,10.0,Calm,Calm,-,N/A,,Clear,0,2013-07-16 11:53:00
8:53 AM,78.1,69.1,74,30.24,10.0,Calm,Calm,-,N/A,,Clear,0,2013-07-16 12:53:00
9:53 AM,82.0,71.1,69,30.23,10.0,Calm,Calm,-,N/A,,Clear,0,2013-07-16 13:53:00
10:53 AM,86.0,68.0,55,30.22,10.0,Variable,3.5,-,N/A,,Clear,0,2013-07-16 14:53:00
11:53 AM,88.0,66.9,49,30.21,10.0,Variable,4.6,-,N/A,,Clear,0,2013-07-16 15:53:00
12:53 PM,87.1,68.0,53,30.20,10.0,NE,8.1,-,N/A,,Mostly Cloudy,40,2013-07-16 16:53:00
1:53 PM,88.0,68.0,51,30.19,10.0,Calm,Calm,-,N/A,,Mostly Cloudy,0,2013-07-16 17:53:00
2:53 PM,89.1,68.0,50,30.18,10.0,Variable,5.8,-,N/A,,Clear,0,2013-07-16 18:53:00
3:53 PM,90.0,66.0,45,30.17,10.0,NW,4.6,-,N/A,,Clear,320,2013-07-16 19:53:00
4:53 PM,91.0,64.9,42,30.16,10.0,Variable,3.5,-,N/A,,Clear,0,2013-07-16 20:53:00
5:53 PM,86.0,70.0,59,30.16,10.0,North,3.5,-,N/A,,Clear,10,2013-07-16 21:53:00
6:53 PM,87.1,72.0,61,30.16,10.0,Calm,Calm,-,N/A,,Clear,0,2013-07-16 22:53:00
7:53 PM,81.0,73.9,79,30.17,10.0,Calm,Calm,-,N/A,,Clear,0,2013-07-16 23:53:00
8:53 PM,77.0,73.0,88,30.18,10.0,Calm,Calm,-,N/A,,Clear,0,2013-07-17 00:53:00
9:53 PM,75.0,72.0,90,30.20,10.0,Calm,Calm,-,N/A,,Clear,0,2013-07-17 01:53:00
10:53 PM,73.0,71.1,93,30.20,9.0,Calm,Calm,-,N/A,,Clear,0,2013-07-17 02:53:00
11:53 PM,72.0,70.0,93,30.19,8.0,Calm,Calm,-,N/A,,Clear,0,2013-07-17 03:53:00